Etusivu
METAR-TAF:

METAR-TAF

Lentoasemat :

Perryton Ochiltree County Airport

Perryton, Texas, Yhdysvallat

Leveyspiiri: 36-24N, Pituuspiiri: 100-44W, korkeus merenpinnasta: 890 m

Tämänhetkinen sää

Tämä raportti tehtiin 21 minuuttia sitten, kello 18.15 UTC
Tuuli 8 kn lounaasta
Lämpötila 8°C
Kosteus 53%
Ilmanpaine 1031 hPa
Näkyvyys: 16.1 km
selkeää

METAR: KPYX 201815Z AUTO 22008KT 10SM CLR 08/M01 A3045 RMK AO2 T00751010

Aika: 12:36 (18:36 UTC)


TAF: puuttuu

Säähavainnot ja -ennusteet yli 4000 lentoasemalta (METAR- ja TAF-raportit).

Käytössä olevat sääasemat on merkitty karttaan keltaisilla ja punaisilla pisteillä.

Aseta hiiri pisteen päälle nähdäksesi sääaseman nimen.

Klikkaa sitten nähdäksesi säähavainnot ja -ennusteet.

Kartan vaihtaminen: klikkaa mustalla rastilla varustettuja vihreitä pisteitä, niin voit zoomata sisään; viivalla varustettua vihreää pistettä, niin voit zoomata ulos tai vihreitä nuolia, niin pääset viereisille kartoille.


METAR-TAF: